FW3788 Weather Reports


time (UTC)temp
C
wind
direction
speed
KPH
gust
KPH
rain 1hr
cm
rain 24hr
cm
rain mn
cm
humidity
%
barometer
mb
20260503180017 11 181 12.9 25.7 0.00 0.00 0.00 69 1010.9
20260503175516 10 169 6.4 25.7 0.00 0.00 0.00 71 1011.0
20260503175016 10 179 11.3 25.7 0.00 0.00 0.00 72 1010.9
20260503174518 10 169 12.9 25.7 0.00 0.00 0.00 74 1011.0
20260503174016 10 151 11.3 25.7 0.00 0.00 0.00 77 1010.9
20260503173516 9 151 11.3 27.4 0.00 0.00 0.00 77 1010.9
20260503173016 10 177 16.1 27.4 0.00 0.00 0.00 77 1010.9
20260503172517 10 170 12.9 27.4 0.00 0.00 0.00 76 1010.8
20260503172016 10 179 17.7 27.4 0.00 0.00 0.00 75 1010.8
20260503171516 10 179 14.5 24.1 0.00 0.00 0.00 77 1010.6
20260503171017 9 171 12.9 22.5 0.00 0.00 0.00 79 1010.5
20260503170516 9 168 12.9 19.3 0.00 0.00 0.00 78 1010.5
20260503150516 8 187 1.6 17.7 0.00 0.00 0.00 77 1009.5
20260503131018 8 183 12.9 17.7 0.00 0.00 0.00 84 1008.2
20260503130515 8 187 8.0 19.3 0.00 0.00 0.00 85 1008.2
20260503110515 8 155 9.7 22.5 0.00 0.00 0.00 89 1008.0
20260503081519 10 167 0.0 0.0 0.00 0.00 0.00 79 1007.7
20260503081019 10 167 0.0 0.0 0.00 0.00 0.00 79 1007.8
20260503080516 10 167 0.0 0.0 0.00 0.00 0.00 79 1007.9
20260503072516 10 167 0.0 0.0 0.00 0.00 0.00 76 1008.0
20260503072116 10 167 0.0 0.0 0.00 0.00 0.00 76 1008.0
20260503071518 10 167 0.0 0.0 0.00 0.00 0.00 76 1008.1
20260503071016 10 167 0.0 0.0 0.00 0.00 0.00 76 1008.1
20260503070516 10 167 0.0 0.0 0.00 0.00 0.00 75 1008.0
20260503060139 11 167 0.0 0.0 0.00 0.00 0.00 73 1008.1
20260503055015 11 167 0.0 0.0 0.00 0.00 0.00 70 1008.2
20260503054516 11 167 0.0 0.0 0.00 0.00 0.00 70 1008.2
20260503054016 11 167 0.0 0.0 0.00 0.00 0.00 69 1008.2
20260503053516 12 167 0.0 0.0 0.00 0.00 0.00 68 1008.2
20260503053019 12 167 0.0 0.0 0.00 0.00 0.00 66 1008.2
20260503052517 12 167 0.0 0.0 0.00 0.00 0.00 66 1008.3
20260503052021 12 167 0.0 0.0 0.00 0.00 0.00 64 1008.4
20260503051517 12 167 0.0 0.0 0.00 0.00 0.00 65 1008.4
20260503051116 12 167 0.0 0.0 0.00 0.00 0.00 66 1008.4
20260503050516 12 241 0.0 0.0 0.00 0.00 0.00 67 1008.4
20260503050023 13 305 0.0 0.0 0.00 0.00 0.00 64 1008.4
20260503045516 13 305 0.0 0.0 0.00 0.00 0.00 66 1008.4
20260503045118 13 305 0.0 0.0 0.00 0.00 0.00 68 1008.4
20260503044519 12 305 0.0 0.0 0.00 0.00 0.00 69 1008.2
20260503044117 12 305 0.0 0.0 0.00 0.00 0.00 68 1008.1
20260503043516 13 305 0.0 0.0 0.00 0.00 0.00 68 1008.1
20260503043016 13 305 0.0 0.0 0.00 0.00 0.00 69 1007.9
20260503042516 13 305 0.0 1.6 0.00 0.00 0.00 68 1007.8
20260503042017 13 305 0.0 3.2 0.00 0.00 0.00 67 1007.9
20260503041516 13 305 0.0 8.0 0.00 0.00 0.00 67 1007.8
20260503041016 13 303 0.0 11.3 0.00 0.00 0.00 67 1007.7
20260503040516 13 318 3.2 9.7 0.00 0.00 0.00 67 1007.5
20260503040016 13 316 0.0 8.0 0.00 0.00 0.00 66 1007.4
20260503035516 14 320 1.6 6.4 0.00 0.00 0.00 64 1007.3
20260503035016 15 332 0.0 8.0 0.00 0.00 0.00 62 1007.2
20260503034517 15 332 1.6 8.0 0.00 0.00 0.00 59 1007.1
20260503034015 16 314 0.0 11.3 0.00 0.00 0.00 54 1007.0
20260503033517 17 152 4.8 12.9 0.00 0.00 0.00 48 1007.0
20260503033018 17 149 8.0 16.1 0.00 0.00 0.00 48 1006.8
20260503032521 17 165 9.7 17.7 0.00 0.00 0.00 48 1006.8
20260503032016 17 158 11.3 19.3 0.00 0.00 0.00 48 1006.8
20260503031517 17 166 12.9 19.3 0.00 0.00 0.00 47 1006.8
20260503031018 18 160 9.7 17.7 0.00 0.00 0.00 47 1006.8
20260503030516 18 176 11.3 19.3 0.00 0.00 0.00 47 1006.8
20260503030022 18 175 9.7 16.1 0.00 0.00 0.00 46 1006.7
20260503025516 18 156 11.3 16.1 0.00 0.00 0.00 47 1006.7
20260503025016 18 164 9.7 14.5 0.00 0.00 0.00 48 1006.8
20260503024516 18 162 9.7 12.9 0.00 0.00 0.00 47 1006.7
20260503024019 18 168 8.0 12.9 0.00 0.00 0.00 46 1006.8
20260503023516 18 174 6.4 12.9 0.00 0.00 0.00 45 1006.7
20260503023016 19 181 8.0 14.5 0.00 0.00 0.00 44 1006.8
20260503022516 19 179 8.0 14.5 0.00 0.00 0.00 42 1006.8
20260503022018 19 164 9.7 16.1 0.00 0.00 0.00 41 1006.8
20260503021522 20 162 6.4 16.1 0.00 0.00 0.00 40 1006.8
20260503021016 20 164 1.6 22.5 0.00 0.00 0.00 38 1006.8
20260503020516 20 186 11.3 22.5 0.00 0.00 0.00 36 1006.8
20260503020017 20 192 0.0 11.3 0.00 0.00 0.00 34 1006.7
20260503015516 20 174 4.8 11.3 0.00 0.00 0.00 33 1006.8
20260503015016 20 173 3.2 16.1 0.00 0.00 0.00 31 1006.8
20260503014516 21 167 3.2 19.3 0.00 0.00 0.00 31 1006.8
20260503014016 21 180 1.6 14.5 0.00 0.00 0.00 31 1006.8
20260503013516 21 197 0.0 16.1 0.00 0.00 0.00 32 1006.8
20260503013017 21 183 8.0 16.1 0.00 0.00 0.00 33 1006.9
20260503012516 21 181 4.8 20.9 0.00 0.00 0.00 33 1006.9
20260503012017 21 201 8.0 20.9 0.00 0.00 0.00 32 1006.8
20260503011517 22 154 6.4 22.5 0.00 0.00 0.00 31 1006.9
20260503011016 22 180 11.3 22.5 0.00 0.00 0.00 29 1006.9
20260503010516 22 152 8.0 27.4 0.00 0.00 0.00 28 1007.0
20260503010021 22 156 12.9 27.4 0.00 0.00 0.00 28 1007.0
20260503005517 22 153 8.0 32.2 0.00 0.00 0.00 27 1007.0
20260503005016 22 147 17.7 24.1 0.00 0.00 0.00 27 1007.0
20260503004516 22 162 6.4 14.5 0.00 0.00 0.00 31 1007.0
20260503004116 22 184 0.0 19.3 0.00 0.00 0.00 32 1007.0
20260503003516 22 157 6.4 24.1 0.00 0.00 0.00 31 1007.0
20260503003017 22 174 9.7 25.7 0.00 0.00 0.00 32 1007.1
20260503002516 22 199 16.1 25.7 0.00 0.00 0.00 30 1007.1
20260503002018 22 192 8.0 17.7 0.00 0.00 0.00 31 1007.2
20260503001516 22 192 1.6 19.3 0.00 0.00 0.00 29 1007.1
20260503001016 22 195 0.0 19.3 0.00 0.00 0.00 31 1007.2
20260503000517 22 162 1.6 27.4 0.00 0.00 0.00 31 1007.2
20260503000016 22 191 12.9 27.4 0.00 0.00 0.00 30 1007.3
20260502235516 22 178 14.5 24.1 0.00 0.00 0.00 28 1007.3
20260502235016 22 191 3.2 14.5 0.00 0.00 0.00 27 1007.2
20260502234526 22 191 1.6 16.1 0.00 0.00 0.00 28 1007.2
20260502234019 22 188 0.0 16.1 0.00 0.00 0.00 27 1007.2
20260502233519 22 168 8.0 27.4 0.00 0.00 0.00 28 1007.2
20260502233118 22 189 8.0 35.4 0.00 0.00 0.00 28 1007.3
20260502232519 22 165 22.5 35.4 0.00 0.00 0.00 27 1007.4
20260502232016 22 200 14.5 24.1 0.00 0.00 0.00 28 1007.5
20260502231517 22 190 14.5 24.1 0.00 0.00 0.00 28 1007.5
20260502231017 22 180 0.0 27.4 0.00 0.00 0.00 28 1007.5
20260502230517 22 195 1.6 32.2 0.00 0.00 0.00 26 1007.5
20260502230022 22 195 4.8 32.2 0.00 0.00 0.00 27 1007.6
20260502225516 22 278 8.0 33.8 0.00 0.00 0.00 26 1007.7
20260502225029 22 201 8.0 33.8 0.00 0.00 0.00 26 1007.7
20260502224517 23 181 8.0 25.7 0.00 0.00 0.00 25 1007.8
20260502224016 23 196 4.8 19.3 0.00 0.00 0.00 26 1007.8
20260502223518 23 187 8.0 19.3 0.00 0.00 0.00 25 1007.9
20260502223018 23 167 9.7 19.3 0.00 0.00 0.00 27 1007.9
20260502222516 23 188 9.7 16.1 0.00 0.00 0.00 27 1008.0
20260502222016 23 231 1.6 29.0 0.00 0.00 0.00 28 1008.2
20260502221516 22 176 19.3 29.0 0.00 0.00 0.00 27 1008.4
20260502221017 22 190 16.1 25.7 0.00 0.00 0.00 28 1008.5
20260502220616 23 202 1.6 27.4 0.00 0.00 0.00 28 1008.4
20260502220016 23 170 4.8 30.6 0.00 0.00 0.00 29 1008.4
20260502215516 23 183 4.8 30.6 0.00 0.00 0.00 29 1008.4
20260502215016 23 175 6.4 22.5 0.00 0.00 0.00 30 1008.5
20260502214516 23 193 4.8 22.5 0.00 0.00 0.00 33 1008.6
20260502214017 23 184 1.6 22.5 0.00 0.00 0.00 32 1008.6
20260502213616 23 158 9.7 22.5 0.00 0.00 0.00 32 1008.6
20260502213017 23 201 8.0 22.5 0.00 0.00 0.00 32 1008.5
20260502212016 23 191 3.2 27.4 0.00 0.00 0.00 30 1008.5
20260502211516 23 194 12.9 27.4 0.00 0.00 0.00 31 1008.6
20260502211020 23 179 14.5 20.9 0.00 0.00 0.00 33 1008.5
20260502210515 23 214 1.6 20.9 0.00 0.00 0.00 31 1008.6
20260502210016 23 200 6.4 20.9 0.00 0.00 0.00 31 1008.7
20260502205522 23 189 6.4 19.3 0.00 0.00 0.00 33 1008.7
20260502205016 23 176 3.2 24.1 0.00 0.00 0.00 32 1008.8
20260502204517 22 175 14.5 25.7 0.00 0.00 0.00 34 1008.9
20260502204118 22 196 12.9 25.7 0.00 0.00 0.00 32 1008.8
20260502203515 23 200 4.8 22.5 0.00 0.00 0.00 34 1008.9
20260502203015 22 205 0.0 24.1 0.00 0.00 0.00 36 1009.0
20260502202516 22 197 6.4 24.1 0.00 0.00 0.00 36 1009.2
20260502202016 22 172 6.4 22.5 0.00 0.00 0.00 36 1009.1
20260502201517 22 174 4.8 27.4 0.00 0.00 0.00 38 1009.0
20260502201016 22 210 16.1 27.4 0.00 0.00 0.00 37 1009.2
20260502200518 22 179 12.9 29.0 0.00 0.00 0.00 40 1009.3
20260502200016 22 179 14.5 29.0 0.00 0.00 0.00 41 1009.3
20260502195515 22 192 6.4 27.4 0.00 0.00 0.00 40 1009.3
20260502195017 22 195 12.9 27.4 0.00 0.00 0.00 40 1009.4
20260502194516 21 197 12.9 25.7 0.00 0.00 0.00 41 1009.5
20260502194116 21 156 12.9 25.7 0.00 0.00 0.00 41 1009.5
20260502193516 21 201 12.9 22.5 0.00 0.00 0.00 42 1009.6
20260502193016 21 181 9.7 30.6 0.00 0.00 0.00 43 1009.7
20260502192516 21 179 12.9 32.2 0.00 0.00 0.00 44 1009.6
20260502192016 21 172 16.1 35.4 0.00 0.00 0.00 42 1009.7
20260502191517 21 181 17.7 35.4 0.00 0.00 0.00 41 1009.7
20260502191016 21 194 14.5 27.4 0.00 0.00 0.00 43 1009.6
20260502190517 21 182 16.1 27.4 0.00 0.00 0.00 43 1009.7
20260502190016 21 170 14.5 27.4 0.00 0.00 0.00 42 1009.7
20260502185515 21 187 9.7 30.6 0.00 0.00 0.00 42 1009.7
20260502185017 21 180 11.3 30.6 0.00 0.00 0.00 42 1009.7
20260502184526 22 201 3.2 32.2 0.00 0.00 0.00 40 1009.7
20260502184016 22 151 9.7 32.2 0.00 0.00 0.00 40 1009.5
20260502183516 22 189 6.4 25.7 0.00 0.00 0.00 38 1009.6
20260502183027 21 230 14.5 25.7 0.00 0.00 0.00 38 1009.7
20260502182517 21 198 3.2 27.4 0.00 0.00 0.00 38 1009.6
20260502182116 21 202 12.9 27.4 0.00 0.00 0.00 38 1009.7
20260502181519 22 177 6.4 25.7 0.00 0.00 0.00 37 1009.8
20260502181016 22 171 8.0 24.1 0.00 0.00 0.00 39 1009.8
20260502180516 22 195 4.8 24.1 0.00 0.00 0.00 38 1009.7